Home > Weather > Nizhny Novgorod > Past weeks

Flag for Russia Past Weather in Nizhny Novgorod, Russia — Yesterday and Last 2 Weeks

Now
73 °F

Thunderstorms. Scattered clouds.


Feels Like: 76 °F
Forecast: 58 / 82 °F
Wind: 1 mph from North

Location: Nizhny Novgorod/Strigino

Current Time: Jul 27, 2016 at 4:37:23 PM

Latest Report: Jul 27, 2016 at 4:00 PM


Visibility: N/A

Pressure: 29.95 "Hg

Humidity: 69%

Dew Point: 63 °F

Location of Nizhny NovgorodLocation

Past Weather in Nizhny Novgorod — Graph

°F

Nizhny Novgorod Temperature Yesterday

Maximum temperature yesterday: 82 °F (at 12:00 PM)
Minimum temperature yesterday: 57 °F (at 3:00 AM)
Average temperature yesterday: 71 °F

High & Low Weather Summary for the Past Weeks

 TemperatureHumidityPressure
High90 °F (Jul 16, 2:00 PM)100% (Jul 13, 1:30 AM)30.04 "Hg (Jul 13, 1:30 AM)
Low52 °F (Jul 18, 3:30 AM)35% (Jul 26, 3:00 PM)29.74 "Hg (Jul 14, 10:00 AM)
Average71 °F74%29.89 "Hg
* Reported Jul 12 3:00 PM — Jul 27 3:30 PM, Nizhny Novgorod, Weather by CustomWeather, © 2016

Note: Actual official high and low records may vary slightly from our data, if they occured in-between our weather recording intervals... More about our weather records

Advertising

Nizhny Novgorod Weather History for the Previous 24 Hours

Scroll right to see more
 ConditionsComfort  
Time TempWeatherWind HumidityBarometerVisibility
3:30 PM
Wed, Jul 27
68 °FThunderstorms. Partly sunny.8 mph78%29.98 "HgN/A
3:00 PM73 °FThunderstorms. Partly sunny.6 mph78%29.95 "Hg6 mi
2:30 PM75 °FThunderstorms. Partly sunny.3 mph74%29.95 "HgN/A
2:00 PM81 °FThunderstorms. Scattered clouds.8 mph51%29.98 "HgN/A
1:30 PM79 °FScattered clouds.10 mph58%29.95 "HgN/A
1:00 PM84 °FScattered clouds.3 mph45%29.95 "HgN/A
12:30 PM82 °FScattered clouds.3 mph48%29.98 "HgN/A
12:00 PM82 °FScattered clouds.3 mph48%29.98 "HgN/A
11:30 AM81 °FScattered clouds.3 mph54%30.01 "HgN/A
11:00 AM81 °FPassing clouds.3 mph58%30.01 "HgN/A
10:30 AM79 °FClear.3 mph61%30.01 "Hg6 mi
10:00 AM79 °FPassing clouds.3 mph61%30.01 "HgN/A
9:30 AM77 °FPassing clouds.3 mph65%30.01 "HgN/A
9:00 AM77 °FPassing clouds.3 mph61%30.01 "HgN/A
8:30 AM75 °FPassing clouds.3 mph65%30.01 "HgN/A
8:00 AM73 °FPassing clouds.1 mph74%30.01 "HgN/A
7:30 AM72 °FPassing clouds.1 mph73%30.01 "Hg6 mi
7:00 AM70 °FPassing clouds.3 mph78%30.01 "Hg6 mi
6:30 AM68 °FPassing clouds.3 mph78%30.01 "HgN/A
6:00 AM66 °FPassing clouds.3 mph88%30.01 "Hg6 mi
5:30 AM64 °FPassing clouds.1 mph94%30.01 "Hg6 mi
5:00 AM61 °FPassing clouds.No wind94%30.01 "Hg5 mi
4:30 AM59 °FClear.1 mph94%30.01 "Hg5 mi
4:00 AM61 °FClear.1 mph94%30.01 "Hg6 mi
3:30 AM59 °FClear.1 mph94%30.01 "Hg6 mi
3:00 AM61 °FClear.1 mph88%30.01 "Hg6 mi
2:30 AM59 °FClear.No wind94%30.01 "Hg6 mi
2:00 AM59 °FClear.No wind94%30.01 "Hg6 mi
1:30 AM61 °FClear.No wind94%30.01 "Hg6 mi
1:00 AM63 °FClear.1 mph88%30.01 "Hg6 mi
12:30 AM68 °FClear.3 mph73%30.01 "Hg10 mi
12:00 AM63 °FClear.1 mph94%30.01 "Hg6 mi
11:30 PM
Tue, Jul 26
63 °FClear.No wind94%30.01 "Hg4 mi
11:00 PM64 °FClear.1 mph88%30.01 "Hg4 mi
10:30 PM63 °FClear.1 mph94%30.01 "Hg4 mi
10:00 PM63 °FClear.1 mph94%30.01 "Hg4 mi
9:30 PM63 °FClear.No wind94%30.01 "Hg4 mi
9:00 PM63 °FClear.1 mph94%30.01 "Hg6 mi
8:30 PM64 °FClear.1 mph88%30.01 "Hg10 mi
8:00 PM66 °FSunny.1 mph88%30.01 "Hg10 mi
7:30 PM70 °FScattered clouds.No wind78%30.01 "HgN/A
7:00 PM77 °FScattered clouds.1 mph65%30.01 "Hg6 mi
6:30 PM79 °FScattered clouds.6 mph51%30.01 "Hg6 mi
6:00 PM81 °FScattered clouds.3 mph45%30.01 "HgN/A
5:30 PM81 °FScattered clouds.3 mph42%30.01 "Hg6 mi
5:00 PM81 °FScattered clouds.3 mph39%30.01 "HgN/A
4:30 PM82 °FScattered clouds.3 mph40%30.01 "HgN/A
4:00 PM82 °FScattered clouds.6 mph37%30.01 "HgN/A
Weather by CustomWeather, © 2016

See weather overviewHow to use our weather pages